Regional Weather Roundup
Issued by NWS Sioux Falls, SD

Home | Current Version | Previous Version | Text Only | Print | Product List | Glossary Off
Versions: 1 2 3 4 5 6 7 8 9 10 11 12 13 14 15 16 17 18 19 20 21 22 23 24 25 26 27 28 29 30 31 32 33 34 35 36 37 38 39 40 41 42 43 44 45 46 47 48 49 50

000
ASUS43 KFSD 281210
RWRFSD

WEATHER ROUNDUP FOR SE SOUTH DAKOTA/SW MINNESOTA/NW IOWA
NATIONAL WEATHER SERVICE SIOUX FALLS SD
700 AM CDT THU AUG 28 2014

NOTE: "FAIR" INDICATES FEW OR NO CLOUDS BELOW 12,000 FEET WITH NO
SIGNIFICANT WEATHER AND OR OBSTRUCTIONS TO VISIBILITY.


SDZ038>040-050-052>070-281300-
SOUTHEAST SOUTH DAKOTA

CITY           SKY/WX    TMP DP  RH WIND       PRES   REMARKS
CHAMBERLAIN    CLOUDY    66  66  99 E7        29.92S
6HR MIN TEMP:  66; 6HR MAX TEMP:  66; 6HR PCP:  0.34;

HURON          CLOUDY    67  66  97 E6        29.94F
6HR MIN TEMP:  67; 6HR MAX TEMP:  69; 6HR PCP:  0.02;

MADISON        LGT RAIN  64  64 100 SE8G16    29.98F
MITCHELL       RAIN      68  67  96 SE9       29.93F FOG
6HR MIN TEMP:  68; 6HR MAX TEMP:  69; 6HR PCP:  0.38;

SIOUX FALLS    LGT RAIN  67  66  97 E8        29.97F FOG
6HR MIN TEMP:  67; 6HR MAX TEMP:  69; 6HR PCP:  0.10;

WINNER         CLOUDY    68  67  96 SE9       29.90F
YANKTON        CLOUDY    68  66  94 SE13      29.93F
$$

MNZ071-072-080-081-089-090-097-098-281300-
SOUTHWEST MINNESOTA

CITY           SKY/WX    TMP DP  RH WIND       PRES   REMARKS
FAIRMONT       CLOUDY    63  57  82 SE6       30.05R
JACKSON        CLOUDY    63  59  88 SE8       30.04F
LUVERNE        LGT RAIN  68  64  88 E7        29.99F
MARSHALL       CLOUDY    63  57  82 SE9       30.01R
6HR MIN TEMP:  63; 6HR MAX TEMP:  66;

MONTEVIDEO     MOCLDY    63  61  94 S7        30.02F
PIPESTONE      LGT RAIN  64  63  94 SE8       30.00F
REDWOOD FALLS  CLOUDY    62  59  90 E8        30.03F
TRACY          CLOUDY    64  61  91 SE7       30.02F
WINDOM         CLOUDY    64  61  88 SE7       30.04S
WORTHINGTON    CLOUDY    64  63  94 E8        30.03F
$$

IAZ001>003-012>014-020>022-031-032-NEZ013-014-SDZ071-281300-
NORTHWEST IOWA

CITY           SKY/WX    TMP DP  RH WIND       PRES   REMARKS
DENISON        LGT RAIN  68  68 100 SE9       29.98F
ESTHERVILLE    LGT RAIN  62  61  96 SE8       30.04S FOG
LE MARS        LGT RAIN  68  68 100 SE8       29.99S
ORANGE CITY    RAIN      70  66  88 SE5       29.99S
SHELDON        LGT RAIN  66  66 100 SE9       29.99S
SIOUX CITY     LGT RAIN  68  66  93 SE12      29.96F
6HR MIN TEMP:  68; 6HR MAX TEMP:  69; 6HR PCP:  0.55;

SPENCER        LGT RAIN  65  63  93 E10       30.02S
6HR MIN TEMP:  65; 6HR MAX TEMP:  67; 6HR PCP:  0.06;

STORM LAKE     LGT RAIN  66  66 100 SE7       30.02S
$$

ABBREVIATIONS USED IN REMARKS
   TC - TEMPERATURE IN CELSIUS
  WCI - WIND CHILL INDEX
   HX - HEAT INDEX
  VSB - VISIBILITY




USA.gov is the U.S. government's official web portal to all federal, state and local government web resources and services.